Find Starlink 11294

NORAD ID: 61054 Int'l Des: 2024-164 Owner: SPXS Country: US Constellation: starlink operational
LEOCIRCULAR

Current View

Loading 3D Globe...

About Starlink 11294

Starlink 11294 (NORAD 61054) is a starlink constellation satellite (v2 mini d2c) launched Sep 13, 2024 by SPXS of US. It operates in LEO, CIRCULAR orbit with a mass of 960.00 kg.

About Starlink 11294

Description loading...

Upcoming Passes

Passes for default location (London). Set your location on the main map for personalized predictions.

Altitude History

Loading altitude history...

Two-Line Element Set

1 61054U 24164E 26171.27315326 -.00001592 00000-0 -82884-5 0 9993
2 61054 53.1593 165.3585 0001087 82.8295 277.2846 15.69693711101531
Epoch: Jun 20, 2026 • Age: 36 hours

Current Status

Altitude 362.2 km
Velocity 7.69 km/s
Sub-Earth Point -8.01°S, 156.42°E
Launch Date Sep 13, 2024
Age 1.7 years
Type internet

Technical Details

Classification Payload
Mass 960.00 kg
Dry Mass 910.00 kg
Total Mass 960.00 kg
Length 0.30 m
Diameter 4.10 m
Span 29.00 m
Shape Box + pan
Manufacturer SPXS
Bus Type Starlink V2MD
Phase Status In Orbit
Owner/State SPXS/US

Most Searched